EW3770 Weather Reports


Display with metric or nautical units.
time (UTC)temp
F
wind
direction
speed
MPH
gust
MPH
rain 1hr
in
rain 24hr
in
rain mn
in
humidity
%
barometer
mb
20260902232703 83 175 2.0 8.0 0.00 0.00 0.00 17 1027.4
20260902231803 83 194 4.0 12.0 0.00 0.00 0.00 17 1027.4
20260902230903 83 182 3.0 14.0 0.00 0.00 0.00 17 1027.4
20260902230003 84 192 4.0 16.0 0.00 0.00 0.00 16 1027.4
20260902225403 84 189 2.0 12.0 0.00 0.00 0.00 17 1027.4
20260902224503 84 181 3.0 11.0 0.00 0.00 0.00 16 1027.4
20260902223603 85 192 4.0 14.0 0.00 0.00 0.00 16 1027.4
20260902222724 84 185 4.0 14.0 0.00 0.00 0.00 18 1027.4
20260902221824 84 181 3.0 17.0 0.00 0.00 0.00 18 1027.4
20260902220903 83 173 2.0 13.0 0.00 0.00 0.00 22 1027.4
20260902220003 83 186 3.0 10.0 0.00 0.00 0.00 20 1027.4
20260902215403 83 174 3.0 10.0 0.00 0.00 0.00 20 1027.4
20260902214503 84 181 3.0 10.0 0.00 0.00 0.00 21 1027.4
20260902213603 85 172 2.0 7.0 0.00 0.00 0.00 22 1027.4
20260902212724 86 174 3.0 10.0 0.00 0.00 0.00 19 1027.4
20260902211803 86 186 4.0 15.0 0.00 0.00 0.00 21 1027.4
20260902210903 86 167 2.0 10.0 0.00 0.00 0.00 22 1027.4
20260902210003 85 189 5.0 15.0 0.00 0.00 0.00 20 1027.4
20260902205403 85 191 5.0 20.0 0.00 0.00 0.00 20 1027.4
20260902204503 85 187 3.0 11.0 0.00 0.00 0.00 22 1027.4
20260902203603 84 166 3.0 9.0 0.00 0.00 0.00 25 1027.4
20260902202703 84 171 3.0 14.0 0.00 0.00 0.00 26 1027.4
20260902201803 84 180 4.0 14.0 0.00 0.00 0.00 26 1027.4
20260902200924 84 171 3.0 8.0 0.00 0.00 0.00 26 1027.4
20260902200003 83 166 4.0 12.0 0.00 0.00 0.00 24 1027.4
20260902195403 83 155 3.0 13.0 0.00 0.00 0.00 25 1027.4
20260902194524 83 181 4.0 13.0 0.00 0.00 0.00 25 1027.4
20260902193624 83 180 3.0 16.0 0.00 0.00 0.00 26 1027.4
20260902192703 83 185 5.0 16.0 0.00 0.00 0.00 24 1027.4
20260902191803 83 189 4.0 12.0 0.00 0.00 0.00 26 1027.4
20260902190903 83 185 5.0 19.0 0.00 0.00 0.00 26 1027.4
20260902190024 82 181 5.0 17.0 0.00 0.00 0.00 27 1027.4
20260902185403 82 187 5.0 17.0 0.00 0.00 0.00 27 1027.4
20260902184503 82 186 3.0 14.0 0.00 0.00 0.00 30 1027.4
20260902183603 81 178 4.0 11.0 0.00 0.00 0.00 29 1027.4
20260902182703 81 189 4.0 11.0 0.00 0.00 0.00 28 1027.4
20260902181803 81 182 4.0 13.0 0.00 0.00 0.00 29 1027.4
20260902180903 81 189 5.0 28.0 0.00 0.00 0.00 28 1027.4
20260902180005 80 170 2.0 10.0 0.00 0.00 0.00 34 1027.4
20260902175424 80 177 2.0 10.0 0.00 0.00 0.00 33 1027.4
20260902174503 80 177 4.0 12.0 0.00 0.00 0.00 33 1027.4
20260902173603 79 168 4.0 15.0 0.00 0.00 0.00 35 1027.4
20260902172703 79 184 3.0 10.0 0.00 0.00 0.00 34 1027.4
20260902171803 78 175 3.0 11.0 0.00 0.00 0.00 37 1027.4
20260902170903 78 178 4.0 12.0 0.00 0.00 0.00 34 1027.4
20260902170003 79 176 4.0 17.0 0.00 0.00 0.00 34 1027.4
20260902165403 79 181 4.0 17.0 0.00 0.00 0.00 34 1027.4
20260902164503 79 175 4.0 14.0 0.00 0.00 0.00 34 1027.4
20260902163603 78 171 4.0 13.0 0.00 0.00 0.00 35 1027.4
20260902162703 78 174 5.0 14.0 0.00 0.00 0.00 35 1027.4
20260902161803 77 164 4.0 13.0 0.00 0.00 0.00 38 1027.4
20260902160903 76 147 4.0 14.0 0.00 0.00 0.00 43 1027.4
20260902160004 76 133 4.0 14.0 0.00 0.00 0.00 39 1027.4
20260902155403 75 140 3.0 11.0 0.00 0.00 0.00 42 1027.4
20260902154503 75 148 2.0 9.0 0.00 0.00 0.00 43 1027.4
20260902153603 75 159 2.0 15.0 0.00 0.00 0.00 43 1027.4
20260902152724 74 158 2.0 5.0 0.00 0.00 0.00 43 1027.4
20260902151803 74 147 2.0 10.0 0.00 0.00 0.00 44 1027.4
20260902150903 73 144 2.0 10.0 0.00 0.00 0.00 43 1027.4
20260902150003 72 154 2.0 8.0 0.00 0.00 0.00 43 1027.4
20260902145403 73 147 1.0 8.0 0.00 0.00 0.00 45 1027.4
20260902144503 73 156 1.0 4.0 0.00 0.00 0.00 45 1027.4
20260902143603 72 177 1.0 5.0 0.00 0.00 0.00 48 1027.4
20260902142724 71 165 0.0 3.0 0.00 0.00 0.00 52 1027.4
20260902141803 70 185 0.0 4.0 0.00 0.00 0.00 53 1027.4
20260902140903 68 214 1.0 3.0 0.00 0.00 0.00 55 1027.4
20260902140003 67 202 0.0 4.0 0.00 0.00 0.00 57 1027.4
20260902135424 66 180 0.0 4.0 0.00 0.00 0.00 57 1027.4
20260902134503 66 156 0.0 5.0 0.00 0.00 0.00 57 1027.4
20260902133603 66 190 0.0 4.0 0.00 0.00 0.00 57 1027.4
20260902132703 66 207 2.0 5.0 0.00 0.00 0.00 58 1027.4
20260902131803 65 209 2.0 6.0 0.00 0.00 0.00 59 1027.4
20260902130903 65 202 1.0 5.0 0.00 0.00 0.00 59 1027.4
20260902130003 65 184 1.0 4.0 0.00 0.00 0.00 59 1027.4
20260902125403 66 184 0.0 4.0 0.00 0.00 0.00 58 1027.4
20260902124503 66 184 0.0 3.0 0.00 0.00 0.00 58 1027.4
20260902123603 66 185 0.0 2.0 0.00 0.00 0.00 57 1027.4
20260902122703 66 192 0.0 5.0 0.00 0.00 0.00 56 1027.4
20260902121824 67 181 0.0 3.0 0.00 0.00 0.00 56 1027.4
20260902120903 67 193 0.0 4.0 0.00 0.00 0.00 55 1027.4
20260902120003 67 189 0.0 4.0 0.00 0.00 0.00 55 1027.4
20260902115403 67 185 0.0 4.0 0.00 0.00 0.00 55 1027.4
20260902114504 67 188 0.0 2.0 0.00 0.00 0.00 55 1027.4
20260902113624 67 176 0.0 3.0 0.00 0.00 0.00 54 1027.4
20260902112724 67 190 1.0 8.0 0.00 0.00 0.00 54 1027.4
20260902111803 67 195 2.0 5.0 0.00 0.00 0.00 55 1027.4
20260902110924 67 206 0.0 3.0 0.00 0.00 0.00 56 1027.4
20260902110005 67 199 2.0 6.0 0.00 0.00 0.00 57 1027.4
20260902105403 66 169 1.0 5.0 0.00 0.00 0.00 57 1027.4
20260902104524 66 165 1.0 4.0 0.00 0.00 0.00 57 1027.4
20260902103603 66 165 1.0 4.0 0.00 0.00 0.00 57 1027.4
20260902102703 67 167 1.0 4.0 0.00 0.00 0.00 57 1027.4
20260902101803 66 154 1.0 5.0 0.00 0.00 0.00 57 1027.4
20260902100903 66 201 2.0 8.0 0.00 0.00 0.00 57 1027.4
20260902100003 66 204 2.0 6.0 0.00 0.00 0.00 57 1027.4
20260902095403 66 198 2.0 6.0 0.00 0.00 0.00 57 1027.4
20260902094503 67 188 2.0 4.0 0.00 0.00 0.00 56 1027.4
20260902093603 66 196 1.0 5.0 0.00 0.00 0.00 56 1027.4
20260902092724 66 188 2.0 5.0 0.00 0.00 0.00 57 1027.4
20260902091803 66 173 2.0 7.0 0.00 0.00 0.00 58 1027.4
20260902090903 66 175 1.0 6.0 0.00 0.00 0.00 59 1027.4
20260902090004 67 196 1.0 5.0 0.00 0.00 0.00 59 1027.4
20260902085403 67 201 1.0 6.0 0.00 0.00 0.00 60 1027.4
20260902084524 67 164 1.0 4.0 0.00 0.00 0.00 60 1027.4
20260902083603 67 181 1.0 4.0 0.00 0.00 0.00 61 1027.4
20260902082703 67 175 1.0 5.0 0.00 0.00 0.00 61 1027.4
20260902081803 67 200 1.0 5.0 0.00 0.00 0.00 61 1027.4
20260902080903 67 176 1.0 5.0 0.00 0.00 0.00 61 1027.4
20260902080003 67 167 2.0 6.0 0.00 0.00 0.00 61 1027.4
20260902075424 67 163 1.0 4.0 0.00 0.00 0.00 61 1027.4
20260902074503 67 150 1.0 5.0 0.00 0.00 0.00 60 1027.4
20260902073603 67 154 1.0 5.0 0.00 0.00 0.00 61 1027.4
20260902072703 67 147 1.0 5.0 0.00 0.00 0.00 60 1027.4
20260902071803 67 152 1.0 4.0 0.00 0.00 0.00 59 1027.4
20260902070903 67 149 0.0 4.0 0.00 0.00 0.00 60 1027.4
20260902070003 67 187 1.0 3.0 0.00 0.00 0.00 59 1027.4
20260902065403 67 151 0.0 2.0 0.00 0.00 0.00 59 1027.4
20260902064524 68 152 0.0 2.0 0.00 0.00 0.00 60 1027.4
20260902063624 68 152 0.0 1.0 0.00 0.00 0.00 59 1027.4
20260902062703 68 152 0.0 2.0 0.00 0.00 0.00 59 1027.4
20260902061803 69 152 0.0 5.0 0.00 0.00 0.00 59 1027.4
20260902060903 69 134 1.0 3.0 0.00 0.00 0.00 59 1027.4
20260902060004 69 153 1.0 3.0 0.00 0.00 0.00 59 1027.4
20260902055403 69 196 1.0 3.0 0.00 0.00 0.00 59 1027.4
20260902054503 70 224 1.0 2.0 0.00 0.00 0.00 58 1027.4
20260902053603 70 176 1.0 5.0 0.00 0.00 0.00 57 1027.4
20260902052724 70 183 1.0 8.0 0.00 0.00 0.00 57 1027.4
20260902051803 70 170 1.0 6.0 0.00 0.00 0.00 57 1027.4
20260902050903 70 185 1.0 6.0 0.00 0.00 0.00 56 1027.4
20260902050005 70 172 0.0 5.0 0.00 0.00 0.00 56 1027.4
20260902045403 70 181 0.0 5.0 0.00 0.00 0.00 56 1027.4
20260902044503 70 206 1.0 4.0 0.00 0.00 0.00 57 1027.4
20260902043603 70 198 0.0 3.0 0.00 0.00 0.00 57 1027.4
20260902042703 70 167 1.0 4.0 0.00 0.00 0.00 57 1027.4
20260902041803 70 183 1.0 4.0 0.00 0.00 0.00 56 1027.4
20260902040903 70 213 0.0 3.0 0.00 0.00 0.00 56 1027.4
20260902040003 71 178 0.0 5.0 0.00 0.00 0.00 56 1027.4
20260902035403 70 159 0.0 1.0 0.00 0.00 0.00 57 1027.4
20260902034503 71 158 0.0 1.0 0.00 0.00 0.00 56 1027.4
20260902033603 71 157 0.0 1.0 0.00 0.00 0.00 55 1027.4
20260902032703 71 155 0.0 3.0 0.00 0.00 0.00 54 1027.4
20260902031803 72 132 0.0 1.0 0.00 0.00 0.00 53 1027.4
20260902030903 72 132 0.0 4.0 0.00 0.00 0.00 52 1027.4
20260902030003 73 133 0.0 1.0 0.00 0.00 0.00 51 1027.4
20260902025403 73 131 0.0 2.0 0.00 0.00 0.00 50 1027.4
20260902024503 74 130 0.0 3.0 0.00 0.00 0.00 49 1027.4
20260902023603 74 162 0.0 3.0 0.00 0.00 0.00 47 1027.4
20260902022703 75 126 1.0 4.0 0.00 0.00 0.00 45 1027.4
20260902021803 75 139 1.0 6.0 0.00 0.00 0.00 45 1027.4
20260902020924 76 142 1.0 6.0 0.00 0.00 0.00 44 1027.4
20260902020024 76 151 1.0 11.0 0.00 0.00 0.00 42 1027.4
20260902015424 76 148 1.0 11.0 0.00 0.00 0.00 42 1027.4
20260902014503 76 146 1.0 5.0 0.00 0.00 0.00 43 1027.4
20260902013603 77 152 1.0 7.0 0.00 0.00 0.00 42 1027.4
20260902012703 77 144 1.0 8.0 0.00 0.00 0.00 42 1027.4
20260902011803 78 154 2.0 7.0 0.00 0.00 0.00 42 1027.4
20260902010903 78 148 2.0 7.0 0.00 0.00 0.00 42 1027.4
20260902010003 79 139 2.0 7.0 0.00 0.00 0.00 41 1027.4
20260902005403 79 145 3.0 10.0 0.00 0.00 0.00 41 1027.4
20260902004503 80 135 2.0 10.0 0.00 0.00 0.00 39 1027.4
20260902003603 80 153 3.0 10.0 0.00 0.00 0.00 39 1027.4
20260902002703 80 148 3.0 11.0 0.00 0.00 0.00 39 1027.4
20260902001803 80 139 3.0 11.0 0.00 0.00 0.00 38 1027.4
20260902000903 81 140 2.0 12.0 0.00 0.00 0.00 39 1027.4
20260902000003 81 140 3.0 12.0 0.00 0.02 0.00 40 1027.4
20260901235403 81 144 2.0 11.0 0.00 0.03 0.00 39 1027.4
20260901234503 81 136 3.0 14.0 0.00 0.03 0.00 39 1027.4
20260901233624 81 132 3.0 11.0 0.00 0.03 0.00 38 1027.4